GW2998 Weather Reports


Display with metric or nautical units.
time (UTC)temp
F
wind
direction
speed
MPH
gust
MPH
rain 1hr
in
rain 24hr
in
rain mn
in
humidity
%
barometer
mb
20260504100419 35 47 2.0 4.0 0.00 0.00 0.00 93 1014.9
20260504081812 37 49 1.0 3.0 0.00 0.00 0.00 88 1015.2
20260504081309 37 97 0.0 2.0 0.00 0.00 0.00 88 1015.4
20260504080805 38 18 2.0 2.0 0.00 0.00 0.00 86 1015.2
20260504080302 38 40 0.0 2.0 0.00 0.00 0.00 86 1015.3
20260504070229 41 58 1.0 3.0 0.00 0.00 0.00 81 1015.2
20260504060150 42 44 0.0 2.0 0.00 0.00 0.00 76 1015.0
20260504050618 42 55 0.0 1.0 0.00 0.00 0.00 75 1014.9
20260504050115 43 104 0.0 0.0 0.00 0.00 0.00 74 1014.9
20260504045612 43 38 0.0 2.0 0.00 0.00 0.00 74 1015.0
20260504045107 43 39 0.0 2.0 0.00 0.00 0.00 73 1014.9
20260504044605 43 48 0.0 2.0 0.00 0.00 0.00 72 1014.7
20260504044102 43 75 0.0 2.0 0.00 0.00 0.00 71 1014.9
20260504043559 43 39 0.0 2.0 0.00 0.00 0.00 70 1014.9
20260504043055 44 44 0.0 1.0 0.00 0.00 0.00 71 1014.8
20260504042552 44 55 0.0 2.0 0.00 0.00 0.00 70 1014.7
20260504042049 44 63 0.0 2.0 0.00 0.00 0.00 69 1014.4
20260504041545 44 72 0.0 2.0 0.00 0.00 0.00 71 1014.4
20260504041042 44 343 0.0 1.0 0.00 0.00 0.00 71 1014.7
20260504040539 44 60 0.0 1.0 0.00 0.00 0.00 68 1014.3
20260504040035 45 89 0.0 2.0 0.00 0.00 0.00 68 1014.5
20260504035532 45 89 0.0 2.0 0.00 0.00 0.00 66 1014.4
20260504035029 45 119 0.0 2.0 0.00 0.00 0.00 66 1014.3
20260504034527 45 113 0.0 3.0 0.00 0.00 0.00 67 1014.2
20260504034023 44 343 0.0 2.0 0.00 0.00 0.00 67 1014.2
20260504033521 44 75 0.0 2.0 0.00 0.00 0.00 67 1014.4
20260504033019 44 19 0.0 2.0 0.00 0.00 0.00 68 1014.4
20260504032515 44 44 0.0 0.0 0.00 0.00 0.00 68 1014.3
20260504032012 44 23 0.0 2.0 0.00 0.00 0.00 67 1014.4
20260504031509 45 66 1.0 2.0 0.00 0.00 0.00 68 1014.7
20260504031005 45 157 0.0 1.0 0.00 0.00 0.00 66 1014.5
20260504030503 45 153 1.0 1.0 0.00 0.00 0.00 67 1014.4
20260504025958 44 31 0.0 2.0 0.00 0.00 0.00 67 1014.2
20260504025456 44 23 1.0 2.0 0.00 0.00 0.00 67 1014.2
20260504024952 44 15 0.0 1.0 0.00 0.00 0.00 70 1014.4
20260504024449 45 35 0.0 2.0 0.00 0.00 0.00 67 1014.3
20260504023946 45 58 1.0 2.0 0.00 0.00 0.00 66 1014.3
20260504023443 45 10 0.0 2.0 0.00 0.00 0.00 66 1014.5
20260504022938 45 44 0.0 1.0 0.00 0.00 0.00 68 1014.3
20260504022435 45 50 1.0 2.0 0.00 0.00 0.00 66 1014.3
20260504021932 45 344 1.0 2.0 0.00 0.00 0.00 67 1014.1
20260504021429 45 50 0.0 2.0 0.00 0.00 0.00 67 1014.4
20260504020926 45 48 0.0 2.0 0.00 0.00 0.00 67 1014.3
20260504020423 45 49 0.0 2.0 0.00 0.00 0.00 66 1014.3
20260504015920 46 22 0.0 2.0 0.00 0.00 0.00 64 1014.4
20260504015415 46 76 0.0 1.0 0.00 0.00 0.00 64 1014.3
20260504014912 46 50 0.0 1.0 0.00 0.00 0.00 65 1014.3
20260504014408 46 62 0.0 2.0 0.00 0.00 0.00 62 1014.3
20260504013905 46 66 0.0 1.0 0.00 0.00 0.00 62 1014.4
20260504013403 47 50 0.0 1.0 0.00 0.00 0.00 61 1014.1
20260504012859 47 75 0.0 1.0 0.00 0.00 0.00 60 1014.1
20260504012357 48 67 1.0 2.0 0.00 0.00 0.00 61 1014.0
20260504011854 48 0 0.0 1.0 0.00 0.00 0.00 58 1014.0
20260504011351 48 22 0.0 2.0 0.00 0.00 0.00 58 1013.9
20260504010847 48 48 0.0 1.0 0.00 0.00 0.00 55 1013.8
20260504010343 48 11 0.0 1.0 0.00 0.00 0.00 57 1013.7
20260504005839 49 50 0.0 1.0 0.00 0.00 0.00 58 1013.8
20260504005336 49 49 0.0 2.0 0.00 0.00 0.00 57 1013.7
20260504004834 49 50 0.0 1.0 0.00 0.00 0.00 57 1013.8
20260504004331 50 78 0.0 2.0 0.00 0.00 0.00 56 1013.9
20260504003827 50 42 1.0 2.0 0.00 0.00 0.00 55 1013.5
20260504003325 50 48 0.0 2.0 0.00 0.00 0.00 53 1013.9
20260504002821 51 334 0.0 2.0 0.00 0.00 0.00 50 1013.8
20260504002318 51 37 0.0 1.0 0.00 0.00 0.00 52 1013.6
20260504001816 52 52 0.0 2.0 0.00 0.00 0.00 51 1013.3
20260504001313 53 75 0.0 1.0 0.00 0.00 0.00 47 1013.4
20260504000810 53 138 0.0 2.0 0.00 0.00 0.00 45 1013.5
20260504000307 54 95 2.0 3.0 0.00 0.00 0.00 43 1013.4
20260503235804 54 54 0.0 2.0 0.00 0.00 0.00 43 1013.4
20260503235302 55 57 2.0 2.0 0.00 0.00 0.00 43 1013.3
20260503234759 55 76 0.0 2.0 0.00 0.00 0.00 43 1013.2
20260503234257 55 62 1.0 3.0 0.00 0.00 0.00 40 1013.3
20260503233754 55 79 2.0 3.0 0.00 0.00 0.00 40 1013.1
20260503233249 56 68 1.0 3.0 0.00 0.00 0.00 38 1013.2
20260503232747 56 110 0.0 5.0 0.00 0.00 0.00 40 1013.1
20260503232244 56 79 2.0 4.0 0.00 0.00 0.00 40 1013.3
20260503231742 56 126 2.0 4.0 0.00 0.00 0.00 39 1013.0
20260503231239 56 141 1.0 4.0 0.00 0.00 0.00 39 1013.1
20260503230734 56 192 2.0 5.0 0.00 0.00 0.00 39 1013.1
20260503230232 56 71 3.0 3.0 0.00 0.00 0.00 39 1013.1
20260503225724 56 119 1.0 2.0 0.00 0.00 0.00 39 1013.2
20260503225224 56 68 2.0 2.0 0.00 0.00 0.00 39 1013.2
20260503224721 56 82 2.0 6.0 0.00 0.00 0.00 39 1013.3
20260503224219 56 64 2.0 5.0 0.00 0.00 0.00 39 1013.1
20260503223716 56 87 2.0 3.0 0.00 0.00 0.00 39 1013.2
20260503223213 56 61 0.0 3.0 0.00 0.00 0.00 42 1013.2
20260503222710 56 82 2.0 3.0 0.00 0.00 0.00 42 1013.1
20260503222208 56 37 0.0 3.0 0.00 0.00 0.00 43 1013.1
20260503221706 57 19 0.0 3.0 0.00 0.00 0.00 41 1013.2
20260503221203 57 64 2.0 3.0 0.00 0.00 0.00 38 1013.0
20260503220659 57 60 1.0 3.0 0.00 0.00 0.00 39 1013.1
20260503220156 57 118 2.0 5.0 0.00 0.00 0.00 38 1013.3
20260503215653 57 67 4.0 5.0 0.00 0.00 0.00 39 1013.0
20260503215149 57 128 1.0 6.0 0.00 0.00 0.00 39 1013.1
20260503214648 57 57 3.0 7.0 0.00 0.00 0.00 37 1013.2
20260503214143 57 92 2.0 6.0 0.00 0.00 0.00 39 1013.2
20260503213638 57 320 2.0 9.0 0.00 0.00 0.00 37 1013.0
20260503213134 57 20 4.0 12.0 0.00 0.00 0.00 38 1013.2
20260503212631 58 59 4.0 6.0 0.00 0.00 0.00 38 1013.1
20260503212129 58 55 5.0 7.0 0.00 0.00 0.00 37 1013.1
20260503211626 58 113 2.0 6.0 0.00 0.00 0.00 37 1013.1
20260503211121 58 163 3.0 9.0 0.00 0.00 0.00 35 1013.1
20260503210618 58 31 3.0 14.0 0.00 0.00 0.00 35 1013.1
20260503210115 58 1 1.0 5.0 0.00 0.00 0.00 37 1013.0
20260503205611 58 100 5.0 15.0 0.00 0.00 0.00 33 1012.9
20260503205107 58 49 3.0 9.0 0.00 0.00 0.00 35 1012.9
20260503204604 58 39 5.0 11.0 0.00 0.00 0.00 34 1012.8
20260503204101 57 168 4.0 9.0 0.00 0.00 0.00 35 1012.8
20260503203558 58 185 3.0 7.0 0.00 0.00 0.00 34 1012.9
20260503203055 59 131 3.0 12.0 0.00 0.00 0.00 33 1012.9
20260503202553 58 147 3.0 5.0 0.00 0.00 0.00 36 1013.0
20260503202051 58 153 5.0 8.0 0.00 0.00 0.00 34 1012.8
20260503201549 58 54 4.0 10.0 0.00 0.00 0.00 34 1012.9
20260503201046 58 173 6.0 11.0 0.00 0.00 0.00 32 1012.8
20260503200542 60 127 3.0 11.0 0.00 0.00 0.00 31 1013.1
20260503200038 59 93 1.0 8.0 0.00 0.00 0.00 34 1013.1
20260503195536 59 60 5.0 12.0 0.00 0.00 0.00 32 1013.2
20260503195032 59 40 3.0 11.0 0.00 0.00 0.00 33 1013.3
20260503194530 60 296 2.0 4.0 0.00 0.00 0.00 35 1013.3
20260503194029 60 351 1.0 9.0 0.00 0.00 0.00 32 1013.4
20260503193526 59 64 4.0 7.0 0.00 0.00 0.00 36 1013.4
20260503193017 59 125 3.0 10.0 0.00 0.00 0.00 32 1013.6
20260503192513 59 201 3.0 6.0 0.00 0.00 0.00 32 1013.5
20260503192009 59 59 4.0 8.0 0.00 0.00 0.00 34 1013.6
20260503191506 57 112 2.0 7.0 0.00 0.00 0.00 32 1013.8
20260503191003 57 123 2.0 9.0 0.00 0.00 0.00 33 1013.7
20260503190459 58 5 5.0 13.0 0.00 0.00 0.00 33 1014.0
20260503185956 57 52 5.0 17.0 0.00 0.00 0.00 32 1013.9
20260503185452 57 41 5.0 12.0 0.00 0.00 0.00 32 1014.2
20260503184952 58 79 4.0 10.0 0.00 0.00 0.00 33 1014.4
20260503184449 58 48 3.0 7.0 0.00 0.00 0.00 35 1014.2
20260503183945 57 340 4.0 9.0 0.00 0.00 0.00 38 1014.3
20260503183442 56 141 3.0 9.0 0.00 0.00 0.00 34 1014.2
20260503182939 56 140 2.0 7.0 0.00 0.00 0.00 38 1014.3
20260503182438 57 47 9.0 12.0 0.00 0.00 0.00 35 1014.4
20260503181935 57 45 7.0 9.0 0.00 0.00 0.00 39 1014.5
20260503181432 56 31 3.0 4.0 0.00 0.00 0.00 38 1014.4
20260503180928 56 61 5.0 7.0 0.00 0.00 0.00 38 1014.7
20260503180427 56 114 3.0 10.0 0.00 0.00 0.00 36 1014.7
20260503175922 56 56 10.0 11.0 0.00 0.00 0.00 37 1014.9
20260503175421 55 65 4.0 12.0 0.00 0.00 0.00 35 1015.1
20260503174916 54 17 5.0 20.0 0.00 0.00 0.00 35 1015.2
20260503174414 54 59 4.0 10.0 0.00 0.00 0.00 37 1015.0
20260503173909 54 78 3.0 19.0 0.00 0.00 0.00 37 1015.2
20260503173405 54 167 3.0 6.0 0.00 0.00 0.00 39 1015.3
20260503172902 54 39 4.0 15.0 0.00 0.00 0.00 37 1015.2
20260503172400 53 72 8.0 17.0 0.00 0.00 0.00 37 1015.2
20260503171855 53 37 0.0 7.0 0.00 0.00 0.00 39 1015.2
20260503171353 54 37 4.0 9.0 0.00 0.00 0.00 40 1015.3
20260503170850 53 172 5.0 20.0 0.00 0.00 0.00 37 1015.3
20260503170346 52 63 5.0 10.0 0.00 0.00 0.00 38 1015.2
20260503150739 47 51 4.0 12.0 0.00 0.00 0.00 44 1016.1
20260503150234 47 111 3.0 9.0 0.00 0.00 0.00 44 1016.2
20260503140159 46 102 1.0 6.0 0.00 0.00 0.00 54 1016.3
20260503131128 44 59 7.0 12.0 0.00 0.00 0.00 62 1016.7
20260503130626 44 61 5.0 10.0 0.00 0.00 0.00 66 1016.4
20260503130124 43 31 2.0 11.0 0.00 0.00 0.00 65 1016.6
20260503110516 39 70 4.0 6.0 0.00 0.00 0.00 75 1016.0